• In Deutschland
  • Länderverzeichnis
  • Für 7 Tage
  • Wassertemperatur
  • Satellitenkarten
  • Wetterkarte
  • Widgets
  • user-avatar
    Anmelden

    Stündliche Wetter Greiz

    Heute, 14 Dezember, Donnerstag

    Zeit Temperatur Niederschläge Wind Luftdruck Luftfeuchtigkeit
    00:00 0°C° 0,2 mm 7 m/S 716 mmHg 82%
    01:00 +2°C° 0 mm 7 m/S 714 mmHg 82%
    02:00 +2°C° 1,2 mm 7 m/S 714 mmHg 82%
    03:00 +2°C° 1,2 mm 7 m/S 713 mmHg 83%
    04:00 +2°C° 1,2 mm 7 m/S 713 mmHg 84%
    05:00 +2°C° 0,3 mm 7 m/S 713 mmHg 85%
    06:00 +2°C° 0,3 mm 6 m/S 713 mmHg 86%
    07:00 +2°C° 0 mm 3 m/S 713 mmHg 87%
    08:00 +1°C° 0,3 mm 6 m/S 714 mmHg 82%
    09:00 0°C° 0,3 mm 8 m/S 714 mmHg 76%
    10:00 -2°C° 0,3 mm 10 m/S 715 mmHg 70%
    11:00 0°C° 0 mm 10 m/S 716 mmHg 70%
    12:00 0°C° 0 mm 9 m/S 716 mmHg 70%
    13:00 0°C° 0 mm 8 m/S 717 mmHg 70%
    14:00 0°C° 0,1 mm 8 m/S 717 mmHg 74%
    15:00 0°C° 0,1 mm 7 m/S 716 mmHg 77%
    16:00 +1°C° 0,1 mm 6 m/S 716 mmHg 80%
    17:00 +1°C° 0,2 mm 6 m/S 716 mmHg 81%
    18:00 +1°C° 0,2 mm 6 m/S 716 mmHg 82%
    19:00 +1°C° 0,2 mm 6 m/S 715 mmHg 83%
    20:00 +1°C° 0,2 mm 6 m/S 715 mmHg 84%
    21:00 +1°C° 0,2 mm 5 m/S 715 mmHg 85%
    22:00 +1°C° 0,2 mm 5 m/S 715 mmHg 85%
    23:00 +1°C° 0,1 mm 5 m/S 715 mmHg 87%

    Morgen, 15 Dezember, Freitag

    Zeit Temperatur Niederschläge Wind Luftdruck Luftfeuchtigkeit
    00:00 +1°C° 0,1 mm 4 m/S 714 mmHg 88%
    01:00 +1°C° 0,1 mm 3 m/S 714 mmHg 90%
    02:00 +1°C° 1,1 mm 3 m/S 714 mmHg 91%
    03:00 +1°C° 1,1 mm 3 m/S 713 mmHg 92%
    04:00 +3°C° 1,1 mm 2 m/S 713 mmHg 92%
    05:00 +1°C° 1,3 mm 3 m/S 713 mmHg 93%
    06:00 +1°C° 1,3 mm 3 m/S 714 mmHg 93%
    07:00 0°C° 1,3 mm 4 m/S 714 mmHg 93%
    08:00 0°C° 0,5 mm 4 m/S 715 mmHg 92%
    09:00 0°C° 0,5 mm 4 m/S 716 mmHg 91%
    10:00 0°C° 0,5 mm 5 m/S 717 mmHg 90%
    11:00 0°C° 0,1 mm 5 m/S 717 mmHg 87%
    12:00 0°C° 0,1 mm 5 m/S 717 mmHg 85%
    13:00 +1°C° 0,1 mm 5 m/S 718 mmHg 82%
    14:00 0°C° 0,1 mm 4 m/S 718 mmHg 84%
    15:00 +1°C° 0,1 mm 3 m/S 718 mmHg 87%
    16:00 +1°C° 0,1 mm 2 m/S 718 mmHg 90%
    17:00 +1°C° 0,1 mm 2 m/S 718 mmHg 90%
    18:00 0°C° 0,1 mm 3 m/S 719 mmHg 91%
    19:00 0°C° 0,1 mm 3 m/S 719 mmHg 92%
    20:00 0°C° 0 mm 3 m/S 719 mmHg 92%
    21:00 0°C° 0 mm 3 m/S 719 mmHg 92%
    22:00 0°C° 0 mm 3 m/S 720 mmHg 93%
    23:00 0°C° 0 mm 3 m/S 720 mmHg 93%

    übermorgen, 16 Dezember, Samstag

    Zeit Temperatur Niederschläge Wind Luftdruck Luftfeuchtigkeit
    00:00 -1°C° 0 mm 3 m/S 720 mmHg 93%
    01:00 -1°C° 0 mm 3 m/S 720 mmHg 93%
    02:00 -1°C° 0 mm 3 m/S 721 mmHg 93%
    03:00 -1°C° 0 mm 3 m/S 721 mmHg 94%
    04:00 -1°C° 0 mm 2 m/S 721 mmHg 94%
    05:00 -1°C° 0,1 mm 2 m/S 722 mmHg 94%
    06:00 -1°C° 0,1 mm 2 m/S 722 mmHg 95%
    07:00 -2°C° 0,1 mm 2 m/S 722 mmHg 96%
    08:00 -1°C° 0 mm 3 m/S 723 mmHg 95%
    09:00 -1°C° 0 mm 3 m/S 723 mmHg 93%
    10:00 0°C° 0 mm 3 m/S 724 mmHg 92%
    11:00 0°C° 0,1 mm 3 m/S 724 mmHg 91%
    12:00 0°C° 0,1 mm 4 m/S 725 mmHg 90%
    13:00 0°C° 0,1 mm 4 m/S 725 mmHg 89%
    14:00 0°C° 0,3 mm 4 m/S 725 mmHg 89%
    15:00 -1°C° 0,3 mm 4 m/S 726 mmHg 89%
    16:00 -1°C° 0,3 mm 4 m/S 726 mmHg 90%
    17:00 -2°C° 0,1 mm 4 m/S 726 mmHg 90%
    18:00 -2°C° 0,1 mm 4 m/S 727 mmHg 90%
    19:00 -2°C° 0,1 mm 4 m/S 727 mmHg 90%
    20:00 -2°C° 0 mm 4 m/S 728 mmHg 91%
    21:00 -3°C° 0 mm 4 m/S 729 mmHg 91%
    22:00 -3°C° 0 mm 4 m/S 729 mmHg 91%
    23:00 -3°C° 0 mm 4 m/S 729 mmHg 91%

    17 Dezember, Sonntag

    Zeit Temperatur Niederschläge Wind Luftdruck Luftfeuchtigkeit
    00:00 -3°C° 0 mm 4 m/S 730 mmHg 92%
    01:00 -3°C° 0 mm 4 m/S 730 mmHg 92%
    02:00 -4°C° 0,1 mm 5 m/S 730 mmHg 91%
    03:00 -4°C° 0,1 mm 5 m/S 731 mmHg 91%
    04:00 -4°C° 0,1 mm 5 m/S 731 mmHg 91%
    05:00 -4°C° 0,2 mm 5 m/S 732 mmHg 91%
    06:00 -4°C° 0,2 mm 5 m/S 732 mmHg 91%
    07:00 -4°C° 0,2 mm 5 m/S 733 mmHg 91%
    08:00 -4°C° 0,2 mm 5 m/S 733 mmHg 90%
    09:00 -2°C° 0,2 mm 5 m/S 734 mmHg 90%
    10:00 -2°C° 0,2 mm 5 m/S 734 mmHg 89%
    11:00 -2°C° 0,2 mm 5 m/S 734 mmHg 89%
    12:00 -1°C° 0,2 mm 5 m/S 735 mmHg 88%
    13:00 -1°C° 0,2 mm 5 m/S 735 mmHg 87%
    14:00 -1°C° 0,2 mm 5 m/S 735 mmHg 87%
    15:00 -1°C° 0,2 mm 5 m/S 735 mmHg 88%
    16:00 -1°C° 0,2 mm 5 m/S 736 mmHg 88%
    17:00 -2°C° 0,2 mm 5 m/S 736 mmHg 89%
    18:00 -2°C° 0,2 mm 5 m/S 736 mmHg 90%
    19:00 -2°C° 0,2 mm 5 m/S 737 mmHg 90%
    20:00 -2°C° 0,1 mm 4 m/S 737 mmHg 91%
    21:00 -2°C° 0,1 mm 4 m/S 737 mmHg 92%
    22:00 -2°C° 0,1 mm 4 m/S 737 mmHg 93%
    23:00 -2°C° 0,1 mm 4 m/S 737 mmHg 92%

    18 Dezember, Montag

    Zeit Temperatur Niederschläge Wind Luftdruck Luftfeuchtigkeit
    00:00 -2°C° 0,1 mm 4 m/S 737 mmHg 92%
    01:00 -2°C° 0,1 mm 5 m/S 737 mmHg 92%
    02:00 -2°C° 0,2 mm 5 m/S 736 mmHg 91%
    03:00 -3°C° 0,2 mm 6 m/S 735 mmHg 90%
    04:00 -3°C° 0,2 mm 6 m/S 734 mmHg 88%
    05:00 -2°C° 1,5 mm 7 m/S 733 mmHg 89%
    06:00 -2°C° 1,5 mm 7 m/S 732 mmHg 90%
    07:00 -2°C° 1,5 mm 8 m/S 731 mmHg 91%
    08:00 -1°C° 1,6 mm 8 m/S 731 mmHg 93%
    09:00 -1°C° 1,6 mm 7 m/S 730 mmHg 94%
    10:00 0°C° 1,6 mm 7 m/S 730 mmHg 96%
    11:00 +1°C° 0,3 mm 6 m/S 730 mmHg 96%
    12:00 +1°C° 0,3 mm 6 m/S 730 mmHg 95%
    13:00 +1°C° 0,3 mm 6 m/S 730 mmHg 94%
    14:00 +1°C° 0,8 mm 6 m/S 730 mmHg 94%
    15:00 +1°C° 0,8 mm 6 m/S 731 mmHg 94%
    16:00 -1°C° 0,8 mm 6 m/S 731 mmHg 94%
    17:00 0°C° 0,3 mm 5 m/S 732 mmHg 95%
    18:00 0°C° 0,3 mm 5 m/S 733 mmHg 96%
    19:00 0°C° 0,3 mm 4 m/S 733 mmHg 97%
    20:00 0°C° 0,2 mm 4 m/S 734 mmHg 97%
    21:00 0°C° 0,2 mm 4 m/S 735 mmHg 98%
    22:00 +1°C° 0,2 mm 3 m/S 736 mmHg 98%
    23:00 +1°C° 0,1 mm 3 m/S 737 mmHg 98%

    19 Dezember, Dienstag

    Zeit Temperatur Niederschläge Wind Luftdruck Luftfeuchtigkeit
    00:00 0°C° 0,1 mm 3 m/S 737 mmHg 98%
    01:00 0°C° 0,1 mm 3 m/S 738 mmHg 97%
    02:00 +1°C° 0,1 mm 2 m/S 739 mmHg 97%
    03:00 -1°C° 0,1 mm 2 m/S 739 mmHg 97%
    04:00 -1°C° 0,1 mm 2 m/S 740 mmHg 97%
    05:00 -1°C° 0 mm 2 m/S 741 mmHg 97%
    06:00 0°C° 0 mm 1 m/S 741 mmHg 97%
    07:00 0°C° 0 mm 1 m/S 742 mmHg 97%
    08:00 0°C° 0 mm 1 m/S 742 mmHg 96%
    09:00 0°C° 0 mm 1 m/S 742 mmHg 96%
    10:00 -1°C° 0 mm 0 m/S 743 mmHg 95%
    11:00 +1°C° 0 mm 1 m/S 743 mmHg 94%
    12:00 +1°C° 0 mm 1 m/S 743 mmHg 92%
    13:00 +1°C° 0 mm 1 m/S 743 mmHg 91%
    14:00 +1°C° 0 mm 1 m/S 743 mmHg 91%
    15:00 +1°C° 0 mm 1 m/S 743 mmHg 91%
    16:00 +1°C° 0 mm 1 m/S 742 mmHg 91%
    17:00 0°C° 0 mm 1 m/S 742 mmHg 91%
    18:00 0°C° 0 mm 1 m/S 742 mmHg 91%
    19:00 -1°C° 0 mm 1 m/S 743 mmHg 92%
    20:00 -1°C° 0 mm 1 m/S 743 mmHg 92%
    21:00 -1°C° 0 mm 1 m/S 743 mmHg 92%
    22:00 -2°C° 0 mm 1 m/S 743 mmHg 93%
    23:00 -2°C° 0 mm 1 m/S 743 mmHg 93%
    Mehr zeigen